Back to Top

Language: 

My Weather Underground Personal Weather Station Historical Data with Graphs...

Delerius Weather Station Historical Data
Daily Summary for September 14, 2017 Units:  Metric    English   Both
« Previous Day
Next Day »
Daily Weekly Monthly Yearly Custom
  High: Low: Average:
Temperature: 17.5 °C 8.3 °C 12.4 °C
Dew Point: 10.6 °C 6.1 °C 8.3 °C
Humidity: 91 % 53 % 77 %
Wind Speed: 27.4 km/h 4.8 km/h 13 km/h
Wind Gust: 45.1 km/h - -
Wind:- - WNW
Pressure: 1011.4 hPa 998.5 hPa -
Precipitation: 0 mm    
Historical Graphs
 
 
Tabular Data for September 14, 2017
Time Temperature Dew Point Pressure Wind Wind Speed Wind Gust Humidity Rainfall Rate (Hourly) solar Conditions
00:00 8.4 °C 6.5 °C 998.9 hPa WNW 4.8 km/h 9.7 km/h 88 % 0 mm 0 W/m2
00:05 8.4 °C 6.7 °C 998.9 hPa WNW 4.8 km/h 9.7 km/h 89 % 0 mm 0 W/m2
00:10 8.3 °C 6.6 °C 998.9 hPa WNW 6.4 km/h 11.3 km/h 89 % 0 mm 0 W/m2
00:15 8.3 °C 6.6 °C 998.5 hPa WNW 8 km/h 14.5 km/h 89 % 0 mm 0 W/m2
00:20 8.3 °C 6.8 °C 998.5 hPa WNW 8 km/h 14.5 km/h 90 % 0 mm 0 W/m2
00:25 8.4 °C 6.8 °C 998.5 hPa WNW 8 km/h 12.9 km/h 90 % 0 mm 0 W/m2
00:30 8.4 °C 6.8 °C 998.5 hPa WNW 8 km/h 14.5 km/h 90 % 0 mm 0 W/m2
00:35 8.4 °C 6.8 °C 998.9 hPa WNW 6.4 km/h 14.5 km/h 90 % 0 mm 0 W/m2
00:40 8.4 °C 6.8 °C 998.9 hPa WNW 6.4 km/h 14.5 km/h 90 % 0 mm 0 W/m2
00:45 8.4 °C 7 °C 998.9 hPa WNW 6.4 km/h 14.5 km/h 91 % 0 mm 0 W/m2
00:50 8.4 °C 6.8 °C 998.9 hPa WNW 6.4 km/h 12.9 km/h 90 % 0 mm 0 W/m2
00:55 8.4 °C 6.8 °C 998.9 hPa WNW 8 km/h 12.9 km/h 90 % 0 mm 0 W/m2
01:00 8.4 °C 7 °C 998.9 hPa West 8 km/h 12.9 km/h 91 % 0 mm 0 W/m2
01:05 8.3 °C 6.9 °C 998.9 hPa WNW 6.4 km/h 12.9 km/h 91 % 0 mm 0 W/m2
01:10 8.3 °C 6.9 °C 998.9 hPa WNW 4.8 km/h 11.3 km/h 91 % 0 mm 0 W/m2
01:15 8.3 °C 6.9 °C 998.9 hPa WNW 6.4 km/h 12.9 km/h 91 % 0 mm 0 W/m2
01:20 8.3 °C 6.9 °C 998.9 hPa WNW 8 km/h 12.9 km/h 91 % 0 mm 0 W/m2
01:25 8.3 °C 6.9 °C 998.9 hPa WNW 8 km/h 14.5 km/h 91 % 0 mm 0 W/m2
01:30 8.4 °C 7 °C 998.9 hPa WNW 8 km/h 16.1 km/h 91 % 0 mm 0 W/m2
01:35 8.4 °C 7 °C 998.9 hPa WNW 8 km/h 16.1 km/h 91 % 0 mm 0 W/m2
01:40 8.4 °C 7 °C 998.9 hPa WNW 8 km/h 14.5 km/h 91 % 0 mm 0 W/m2
01:45 8.5 °C 7.1 °C 998.9 hPa NW 8 km/h 14.5 km/h 91 % 0 mm 0 W/m2
01:50 8.5 °C 7.1 °C 998.9 hPa WNW 8 km/h 14.5 km/h 91 % 0 mm 0 W/m2
01:55 8.4 °C 6.8 °C 998.9 hPa West 8 km/h 16.1 km/h 90 % 0 mm 0 W/m2
02:00 8.5 °C 6.9 °C 999.2 hPa WNW 8 km/h 16.1 km/h 90 % 0 mm 0 W/m2
02:05 8.5 °C 6.9 °C 999.2 hPa WNW 8 km/h 14.5 km/h 90 % 0 mm 0 W/m2
02:10 8.5 °C 6.9 °C 999.2 hPa WNW 8 km/h 12.9 km/h 90 % 0 mm 0 W/m2
02:15 8.5 °C 6.9 °C 999.2 hPa WNW 8 km/h 14.5 km/h 90 % 0 mm 0 W/m2
02:20 8.6 °C 7.1 °C 999.2 hPa WNW 8 km/h 14.5 km/h 90 % 0 mm 0 W/m2
02:25 8.6 °C 7.1 °C 998.9 hPa WNW 8 km/h 14.5 km/h 90 % 0 mm 0 W/m2
02:31 8.6 °C 7.1 °C 998.9 hPa WNW 8 km/h 19.3 km/h 90 % 0 mm 0 W/m2
02:35 8.7 °C 7.2 °C 998.9 hPa WNW 9.7 km/h 19.3 km/h 90 % 0 mm 0 W/m2
02:40 8.8 °C 7.2 °C 999.2 hPa WNW 9.7 km/h 19.3 km/h 90 % 0 mm 0 W/m2
02:45 8.9 °C 7.3 °C 999.2 hPa WNW 9.7 km/h 17.7 km/h 90 % 0 mm 0 W/m2
02:51 9.1 °C 7.4 °C 999.2 hPa WNW 12.9 km/h 19.3 km/h 89 % 0 mm 0 W/m2
02:56 9.2 °C 7.5 °C 999.2 hPa WNW 12.9 km/h 25.7 km/h 89 % 0 mm 0 W/m2
03:01 9.3 °C 7.6 °C 999.2 hPa WNW 14.5 km/h 25.7 km/h 89 % 0 mm 0 W/m2
03:06 9.4 °C 7.5 °C 999.2 hPa WNW 14.5 km/h 25.7 km/h 88 % 0 mm 0 W/m2
03:11 9.5 °C 7.6 °C 999.2 hPa WNW 12.9 km/h 20.9 km/h 88 % 0 mm 0 W/m2
03:16 9.6 °C 7.7 °C 999.2 hPa WNW 12.9 km/h 24.1 km/h 88 % 0 mm 0 W/m2
03:21 9.6 °C 7.7 °C 999.2 hPa WNW 12.9 km/h 24.1 km/h 88 % 0 mm 0 W/m2
03:26 9.6 °C 7.7 °C 999.2 hPa WNW 11.3 km/h 20.9 km/h 88 % 0 mm 0 W/m2
03:31 9.7 °C 7.8 °C 999.2 hPa WNW 9.7 km/h 17.7 km/h 88 % 0 mm 0 W/m2
03:36 9.7 °C 7.8 °C 999.2 hPa WNW 9.7 km/h 17.7 km/h 88 % 0 mm 0 W/m2
03:41 9.7 °C 7.8 °C 999.2 hPa WNW 9.7 km/h 19.3 km/h 88 % 0 mm 0 W/m2
03:46 9.8 °C 7.9 °C 999.5 hPa WNW 9.7 km/h 19.3 km/h 88 % 0 mm 0 W/m2
03:51 9.8 °C 7.9 °C 999.5 hPa WNW 9.7 km/h 17.7 km/h 88 % 0 mm 0 W/m2
03:56 9.8 °C 7.9 °C 999.5 hPa WNW 9.7 km/h 17.7 km/h 88 % 0 mm 0 W/m2
04:01 9.8 °C 7.9 °C 999.5 hPa WNW 9.7 km/h 17.7 km/h 88 % 0 mm 0 W/m2
04:06 9.8 °C 8.1 °C 999.5 hPa WNW 11.3 km/h 17.7 km/h 89 % 0 mm 0 W/m2
04:11 9.8 °C 8.1 °C 999.5 hPa WNW 11.3 km/h 17.7 km/h 89 % 0 mm 0 W/m2
04:16 9.8 °C 8.1 °C 999.5 hPa WNW 9.7 km/h 17.7 km/h 89 % 0 mm 0 W/m2
04:19 9.8 °C 8.1 °C 999.9 hPa WNW 9.7 km/h 17.7 km/h 89 % 0 mm 0 W/m2
04:21 9.8 °C 8.1 °C 999.9 hPa WNW 9.7 km/h 17.7 km/h 89 % 0 mm 0 W/m2
04:23 9.8 °C 8.1 °C 999.9 hPa WNW 8 km/h 17.7 km/h 89 % 0 mm 0 W/m2
04:26 9.8 °C 8.1 °C 999.9 hPa WNW 8 km/h 14.5 km/h 89 % 0 mm 0 W/m2
04:27 9.8 °C 8.1 °C 999.9 hPa WNW 8 km/h 12.9 km/h 89 % 0 mm 0 W/m2
04:30 9.8 °C 8.1 °C 999.9 hPa WNW 8 km/h 14.5 km/h 89 % 0 mm 0 W/m2
04:35 9.8 °C 8.2 °C 999.9 hPa WNW 9.7 km/h 16.1 km/h 90 % 0 mm 0 W/m2
04:37 9.8 °C 8.2 °C 999.9 hPa WNW 9.7 km/h 16.1 km/h 90 % 0 mm 0 W/m2
04:42 9.8 °C 8.2 °C 999.9 hPa WNW 9.7 km/h 17.7 km/h 90 % 0 mm 0 W/m2
04:47 9.8 °C 8.2 °C 999.9 hPa WNW 9.7 km/h 17.7 km/h 90 % 0 mm 0 W/m2
04:52 9.8 °C 8.2 °C 999.9 hPa WNW 9.7 km/h 19.3 km/h 90 % 0 mm 0 W/m2
04:57 9.8 °C 8.2 °C 999.9 hPa WNW 9.7 km/h 19.3 km/h 90 % 0 mm 0 W/m2
05:02 9.8 °C 8.2 °C 999.9 hPa WNW 9.7 km/h 14.5 km/h 90 % 0 mm 0 W/m2
05:07 9.8 °C 8.2 °C 1000.2 hPa WNW 9.7 km/h 16.1 km/h 90 % 0 mm 0 W/m2
05:12 9.8 °C 8.2 °C 1000.2 hPa WNW 11.3 km/h 19.3 km/h 90 % 0 mm 0 W/m2
05:17 9.9 °C 8.3 °C 1000.2 hPa WNW 11.3 km/h 19.3 km/h 90 % 0 mm 0 W/m2
05:22 9.9 °C 8.3 °C 1000.2 hPa WNW 11.3 km/h 20.9 km/h 90 % 0 mm 0 W/m2
05:27 9.9 °C 8.3 °C 1000.2 hPa WNW 11.3 km/h 20.9 km/h 90 % 0 mm 0 W/m2
05:29 9.9 °C 8.3 °C 1000.2 hPa WNW 11.3 km/h 19.3 km/h 90 % 0 mm 0 W/m2
05:34 9.9 °C 8.3 °C 1000.6 hPa WNW 11.3 km/h 19.3 km/h 90 % 0 mm 0 W/m2
05:39 10 °C 8.4 °C 1000.6 hPa WNW 11.3 km/h 17.7 km/h 90 % 0 mm 0 W/m2
05:44 10 °C 8.3 °C 1000.6 hPa WNW 11.3 km/h 20.9 km/h 89 % 0 mm 0 W/m2
05:49 10 °C 8.3 °C 1000.6 hPa WNW 12.9 km/h 24.1 km/h 89 % 0 mm 0 W/m2
05:54 10.1 °C 8.4 °C 1000.6 hPa WNW 12.9 km/h 24.1 km/h 89 % 0 mm 0 W/m2
05:59 10.1 °C 8.4 °C 1000.9 hPa WNW 11.3 km/h 19.3 km/h 89 % 0 mm 0 W/m2
06:04 10.1 °C 8.4 °C 1000.9 hPa WNW 9.7 km/h 17.7 km/h 89 % 0 mm 0 W/m2
06:09 10.1 °C 8.4 °C 1000.9 hPa WNW 9.7 km/h 17.7 km/h 89 % 0 mm 0 W/m2
06:14 10.1 °C 8.4 °C 1000.9 hPa WNW 11.3 km/h 19.3 km/h 89 % 0 mm 0 W/m2
06:19 10.1 °C 8.4 °C 1000.9 hPa WNW 12.9 km/h 22.5 km/h 89 % 0 mm 0 W/m2
06:24 10.1 °C 8.4 °C 1001.2 hPa WNW 12.9 km/h 22.5 km/h 89 % 0 mm 0 W/m2
06:29 10.1 °C 8.4 °C 1001.2 hPa WNW 11.3 km/h 20.9 km/h 89 % 0 mm 0 W/m2
06:34 10.1 °C 8.4 °C 1001.2 hPa WNW 11.3 km/h 22.5 km/h 89 % 0 mm 0 W/m2
06:39 10.2 °C 8.4 °C 1001.2 hPa WNW 11.3 km/h 22.5 km/h 89 % 0 mm 0 W/m2
06:44 10.2 °C 8.4 °C 1001.2 hPa WNW 11.3 km/h 20.9 km/h 89 % 0 mm 0 W/m2
06:49 10.2 °C 8.4 °C 1001.6 hPa WNW 12.9 km/h 25.7 km/h 89 % 0 mm 5 W/m2
06:54 10.2 °C 8.3 °C 1001.6 hPa WNW 12.9 km/h 25.7 km/h 88 % 0 mm 7 W/m2
06:59 10.2 °C 8.3 °C 1001.6 hPa WNW 12.9 km/h 24.1 km/h 88 % 0 mm 9 W/m2
07:04 10.3 °C 8.4 °C 1001.6 hPa WNW 12.9 km/h 20.9 km/h 88 % 0 mm 11 W/m2
07:09 10.3 °C 8.4 °C 1001.6 hPa WNW 11.3 km/h 20.9 km/h 88 % 0 mm 14 W/m2
07:14 10.3 °C 8.4 °C 1001.6 hPa WNW 11.3 km/h 20.9 km/h 88 % 0 mm 18 W/m2
07:19 10.3 °C 8.4 °C 1001.9 hPa WNW 12.9 km/h 20.9 km/h 88 % 0 mm 21 W/m2
07:24 10.3 °C 8.4 °C 1001.9 hPa WNW 12.9 km/h 22.5 km/h 88 % 0 mm 28 W/m2
07:29 10.3 °C 8.4 °C 1001.9 hPa WNW 12.9 km/h 22.5 km/h 88 % 0 mm 30 W/m2
07:34 10.4 °C 8.3 °C 1001.9 hPa WNW 11.3 km/h 20.9 km/h 87 % 0 mm 39 W/m2
07:39 10.4 °C 8.3 °C 1001.9 hPa WNW 11.3 km/h 20.9 km/h 87 % 0 mm 49 W/m2
07:44 10.5 °C 8.4 °C 1002.3 hPa WNW 12.9 km/h 20.9 km/h 87 % 0 mm 51 W/m2
07:49 10.6 °C 8.3 °C 1002.3 hPa WNW 12.9 km/h 22.5 km/h 86 % 0 mm 58 W/m2
07:54 10.7 °C 8.4 °C 1002.6 hPa WNW 12.9 km/h 22.5 km/h 86 % 0 mm 67 W/m2
08:00 10.8 °C 8.6 °C 1002.6 hPa WNW 12.9 km/h 24.1 km/h 86 % 0 mm 88 W/m2
08:05 10.9 °C 8.7 °C 1002.6 hPa WNW 12.9 km/h 24.1 km/h 86 % 0 mm 223 W/m2
08:10 11.2 °C 8.8 °C 1002.6 hPa WNW 11.3 km/h 24.1 km/h 85 % 0 mm 229 W/m2
08:15 11.5 °C 8.9 °C 1002.9 hPa WNW 12.9 km/h 24.1 km/h 84 % 0 mm 230 W/m2
08:20 11.8 °C 9 °C 1002.9 hPa WNW 12.9 km/h 30.6 km/h 83 % 0 mm 227 W/m2
08:25 11.9 °C 8.9 °C 1002.9 hPa WNW 12.9 km/h 30.6 km/h 82 % 0 mm 237 W/m2
08:30 12.2 °C 9.1 °C 1002.9 hPa WNW 11.3 km/h 30.6 km/h 81 % 0 mm 237 W/m2
08:35 12.3 °C 8.9 °C 1003.3 hPa WNW 14.5 km/h 32.2 km/h 80 % 0 mm 253 W/m2
08:40 12.4 °C 9.1 °C 1003.3 hPa WNW 14.5 km/h 32.2 km/h 80 % 0 mm 267 W/m2
08:45 12.5 °C 8.9 °C 1003.6 hPa NW 12.9 km/h 25.7 km/h 79 % 0 mm 274 W/m2
08:50 12.6 °C 8.9 °C 1003.6 hPa NW 14.5 km/h 29 km/h 78 % 0 mm 294 W/m2
08:55 12.7 °C 8.9 °C 1003.6 hPa NW 14.5 km/h 29 km/h 78 % 0 mm 306 W/m2
09:00 12.9 °C 9.2 °C 1003.6 hPa NW 12.9 km/h 25.7 km/h 78 % 0 mm 325 W/m2
09:05 13.1 °C 8.9 °C 1003.9 hPa NW 12.9 km/h 29 km/h 76 % 0 mm 350 W/m2
09:10 13.3 °C 8.9 °C 1003.9 hPa NW 14.5 km/h 29 km/h 75 % 0 mm 306 W/m2
09:15 13.4 °C 9.3 °C 1004.3 hPa NW 12.9 km/h 25.7 km/h 76 % 0 mm 387 W/m2
09:20 13.5 °C 8.9 °C 1004.3 hPa NW 14.5 km/h 30.6 km/h 74 % 0 mm 397 W/m2
09:25 13.7 °C 9.2 °C 1004.6 hPa NW 14.5 km/h 30.6 km/h 74 % 0 mm 431 W/m2
09:30 14 °C 9.2 °C 1004.6 hPa NW 12.9 km/h 30.6 km/h 73 % 0 mm 483 W/m2
09:35 14 °C 9.1 °C 1004.6 hPa NW 14.5 km/h 29 km/h 72 % 0 mm 227 W/m2
09:40 13.8 °C 8.8 °C 1004.6 hPa NW 14.5 km/h 25.7 km/h 72 % 0 mm 158 W/m2
09:45 13.7 °C 8.9 °C 1005 hPa NW 11.3 km/h 20.9 km/h 73 % 0 mm 517 W/m2
09:50 13.8 °C 9.2 °C 1005 hPa NW 11.3 km/h 20.9 km/h 74 % 0 mm 548 W/m2
09:55 14.1 °C 9.3 °C 1005 hPa NW 12.9 km/h 22.5 km/h 73 % 0 mm 292 W/m2
10:00 14.2 °C 9.2 °C 1005 hPa NW 14.5 km/h 25.7 km/h 72 % 0 mm 671 W/m2
10:05 14.3 °C 9.1 °C 1005.3 hPa NW 14.5 km/h 25.7 km/h 71 % 0 mm 330 W/m2
10:10 14.2 °C 9 °C 1005.3 hPa NW 14.5 km/h 32.2 km/h 71 % 0 mm 207 W/m2
10:15 14.1 °C 8.9 °C 1005.6 hPa NW 16.1 km/h 32.2 km/h 71 % 0 mm 188 W/m2
10:20 13.9 °C 8.9 °C 1005.6 hPa NW 16.1 km/h 29 km/h 72 % 0 mm 195 W/m2
10:25 13.8 °C 9.1 °C 1005.6 hPa NW 12.9 km/h 29 km/h 73 % 0 mm 496 W/m2
10:31 14 °C 9.2 °C 1005.6 hPa NW 12.9 km/h 22.5 km/h 73 % 0 mm 584 W/m2
10:36 14.3 °C 9.3 °C 1005.6 hPa NW 14.5 km/h 29 km/h 72 % 0 mm 766 W/m2
10:41 14.7 °C 9.5 °C 1005.6 hPa NW 16.1 km/h 29 km/h 71 % 0 mm 334 W/m2
10:46 14.8 °C 9.4 °C 1006 hPa NW 14.5 km/h 25.7 km/h 70 % 0 mm 606 W/m2
10:51 14.9 °C 9.1 °C 1006 hPa NW 14.5 km/h 33.8 km/h 68 % 0 mm 622 W/m2
10:56 15.1 °C 9.2 °C 1006 hPa NW 16.1 km/h 33.8 km/h 68 % 0 mm 612 W/m2
11:01 15.2 °C 9.3 °C 1006 hPa NW 14.5 km/h 29 km/h 68 % 0 mm 617 W/m2
11:06 15.3 °C 9.4 °C 1006 hPa NW 16.1 km/h 29 km/h 68 % 0 mm 628 W/m2
11:11 15.4 °C 9.5 °C 1006 hPa NW 14.5 km/h 25.7 km/h 68 % 0 mm 631 W/m2
11:16 15.6 °C 9.5 °C 1006 hPa NW 12.9 km/h 24.1 km/h 67 % 0 mm 654 W/m2
11:21 15.8 °C 9.7 °C 1006 hPa NW 12.9 km/h 24.1 km/h 67 % 0 mm 707 W/m2
11:26 15.7 °C 9.4 °C 1006.3 hPa NW 14.5 km/h 29 km/h 66 % 0 mm 675 W/m2
11:31 15.7 °C 9.4 °C 1006.3 hPa NNW 14.5 km/h 29 km/h 66 % 0 mm 696 W/m2
11:36 15.8 °C 9.2 °C 1006.3 hPa NW 14.5 km/h 32.2 km/h 65 % 0 mm 789 W/m2
11:41 15.8 °C 9.4 °C 1006.7 hPa NW 12.9 km/h 32.2 km/h 66 % 0 mm 206 W/m2
11:46 15.8 °C 9.2 °C 1006.7 hPa NW 12.9 km/h 29 km/h 65 % 0 mm 207 W/m2
11:51 15.7 °C 9.1 °C 1006.7 hPa NW 14.5 km/h 29 km/h 65 % 0 mm 207 W/m2
11:56 15.6 °C 9.5 °C 1006.7 hPa NW 14.5 km/h 29 km/h 67 % 0 mm 211 W/m2
12:01 15.5 °C 9.4 °C 1006.7 hPa NW 12.9 km/h 24.1 km/h 67 % 0 mm 693 W/m2
12:06 15.7 °C 9.6 °C 1006.7 hPa NW 12.9 km/h 24.1 km/h 67 % 0 mm 700 W/m2
12:11 16.1 °C 9.7 °C 1007 hPa NW 12.9 km/h 32.2 km/h 66 % 0 mm 728 W/m2
12:15 16.2 °C 9.4 °C 1007 hPa WNW 14.5 km/h 32.2 km/h 64 % 0 mm 701 W/m2
12:20 16.6 °C 9.5 °C 1007 hPa WNW 16.1 km/h 32.2 km/h 63 % 0 mm 800 W/m2
12:25 16.6 °C 9.3 °C 1007 hPa WNW 16.1 km/h 32.2 km/h 62 % 0 mm 761 W/m2
12:30 16.6 °C 9.5 °C 1007 hPa WNW 17.7 km/h 32.2 km/h 63 % 0 mm 722 W/m2
12:36 16.7 °C 9.8 °C 1007 hPa WNW 17.7 km/h 32.2 km/h 64 % 0 mm 740 W/m2
12:41 16.9 °C 9.6 °C 1007.3 hPa WNW 16.1 km/h 32.2 km/h 62 % 0 mm 729 W/m2
12:46 17.1 °C 9.5 °C 1007.3 hPa WNW 17.7 km/h 32.2 km/h 61 % 0 mm 684 W/m2
12:51 17.2 °C 9.1 °C 1007.3 hPa WNW 17.7 km/h 32.2 km/h 59 % 0 mm 793 W/m2
12:56 17.3 °C 9.4 °C 1007.3 hPa WNW 17.7 km/h 32.2 km/h 60 % 0 mm 863 W/m2
13:01 17.4 °C 9.3 °C 1007.3 hPa WNW 16.1 km/h 32.2 km/h 59 % 0 mm 257 W/m2
13:06 17.1 °C 9 °C 1007.3 hPa WNW 17.7 km/h 32.2 km/h 59 % 0 mm 220 W/m2
13:11 16.8 °C 9.5 °C 1007.3 hPa WNW 16.1 km/h 30.6 km/h 62 % 0 mm 399 W/m2
13:16 16.7 °C 9.1 °C 1007.7 hPa WNW 14.5 km/h 25.7 km/h 61 % 0 mm 318 W/m2
13:21 16.8 °C 9.5 °C 1007.7 hPa NW 16.1 km/h 29 km/h 62 % 0 mm 786 W/m2
13:26 17.2 °C 9.6 °C 1007.7 hPa WNW 16.1 km/h 30.6 km/h 61 % 0 mm 840 W/m2
13:31 17.2 °C 9.4 °C 1007.7 hPa NW 16.1 km/h 30.6 km/h 60 % 0 mm 223 W/m2
13:36 16.9 °C 9.1 °C 1007.7 hPa NW 16.1 km/h 40.2 km/h 60 % 0 mm 132 W/m2
13:41 16.3 °C 9.7 °C 1008 hPa WNW 17.7 km/h 40.2 km/h 65 % 0 mm 162 W/m2
13:46 15.7 °C 9.8 °C 1008 hPa WNW 14.5 km/h 33.8 km/h 68 % 0 mm 494 W/m2
13:51 15.6 °C 10.3 °C 1008 hPa WNW 11.3 km/h 22.5 km/h 71 % 0 mm 708 W/m2
13:56 16 °C 10.6 °C 1008 hPa WNW 9.7 km/h 17.7 km/h 70 % 0 mm 714 W/m2
14:01 16.3 °C 10.2 °C 1008 hPa WNW 11.3 km/h 24.1 km/h 67 % 0 mm 731 W/m2
14:06 16.4 °C 10.1 °C 1008 hPa WNW 12.9 km/h 24.1 km/h 66 % 0 mm 756 W/m2
14:11 16.7 °C 10.6 °C 1008 hPa WNW 12.9 km/h 22.5 km/h 67 % 0 mm 773 W/m2
14:16 17 °C 10.4 °C 1008 hPa WNW 12.9 km/h 22.5 km/h 65 % 0 mm 823 W/m2
14:21 17.3 °C 9.9 °C 1008 hPa WNW 14.5 km/h 30.6 km/h 62 % 0 mm 302 W/m2
14:26 17.4 °C 9.8 °C 1008 hPa WNW 17.7 km/h 33.8 km/h 61 % 0 mm 422 W/m2
14:31 17.3 °C 9.2 °C 1008.4 hPa WNW 20.9 km/h 33.8 km/h 59 % 0 mm 318 W/m2
14:36 17.2 °C 9.4 °C 1008.4 hPa WNW 20.9 km/h 35.4 km/h 60 % 0 mm 675 W/m2
14:41 17.3 °C 9.2 °C 1008.4 hPa WNW 17.7 km/h 35.4 km/h 59 % 0 mm 608 W/m2
14:46 17.4 °C 9.6 °C 1008.4 hPa WNW 16.1 km/h 29 km/h 60 % 0 mm 605 W/m2
14:51 17.4 °C 9.3 °C 1008.4 hPa WNW 17.7 km/h 32.2 km/h 59 % 0 mm 647 W/m2
14:56 17.5 °C 9.7 °C 1008.4 hPa WNW 19.3 km/h 35.4 km/h 60 % 0 mm 670 W/m2
15:01 17.4 °C 9.6 °C 1008.4 hPa WNW 19.3 km/h 35.4 km/h 60 % 0 mm 608 W/m2
15:07 16.8 °C 7.2 °C 1008.7 hPa NW 22.5 km/h 45.1 km/h 53 % 0 mm 76 W/m2
15:12 15.7 °C 6.4 °C 1008.7 hPa NW 19.3 km/h 45.1 km/h 54 % 0 mm 134 W/m2
15:17 15.1 °C 6.1 °C 1008.7 hPa NW 19.3 km/h 38.6 km/h 55 % 0 mm 223 W/m2
15:22 14.9 °C 6.9 °C 1008.7 hPa NW 19.3 km/h 38.6 km/h 59 % 0 mm 468 W/m2
15:27 15 °C 7.1 °C 1008.7 hPa NNW 14.5 km/h 30.6 km/h 59 % 0 mm 185 W/m2
15:32 14.9 °C 6.9 °C 1008.7 hPa NW 11.3 km/h 25.7 km/h 59 % 0 mm 404 W/m2
15:37 15.1 °C 7.6 °C 1008.7 hPa NW 11.3 km/h 25.7 km/h 61 % 0 mm 246 W/m2
15:42 15.2 °C 7.9 °C 1008.7 hPa NW 9.7 km/h 19.3 km/h 62 % 0 mm 455 W/m2
15:47 15.6 °C 8.3 °C 1008.7 hPa WNW 9.7 km/h 25.7 km/h 62 % 0 mm 601 W/m2
15:52 16.1 °C 8.6 °C 1008.7 hPa WNW 12.9 km/h 25.7 km/h 61 % 0 mm 548 W/m2
15:57 16.3 °C 8.8 °C 1008.7 hPa WNW 12.9 km/h 20.9 km/h 61 % 0 mm 381 W/m2
16:02 16.6 °C 8.6 °C 1008.7 hPa WNW 16.1 km/h 37 km/h 59 % 0 mm 557 W/m2
16:07 16.8 °C 8.5 °C 1008.7 hPa WNW 20.9 km/h 37 km/h 58 % 0 mm 517 W/m2
16:12 16.9 °C 8.1 °C 1008.7 hPa WNW 22.5 km/h 38.6 km/h 56 % 0 mm 471 W/m2
16:17 16.9 °C 7.8 °C 1008.7 hPa WNW 22.5 km/h 41.8 km/h 55 % 0 mm 462 W/m2
16:18 16.9 °C 7.8 °C 1008.7 hPa WNW 22.5 km/h 41.8 km/h 55 % 0 mm 459 W/m2
16:23 16.8 °C 8.2 °C 1008.7 hPa WNW 22.5 km/h 40.2 km/h 57 % 0 mm 441 W/m2
16:28 16.8 °C 8.2 °C 1008.7 hPa WNW 20.9 km/h 35.4 km/h 57 % 0 mm 457 W/m2
16:33 16.8 °C 8.2 °C 1008.7 hPa WNW 19.3 km/h 35.4 km/h 57 % 0 mm 517 W/m2
16:38 16.9 °C 8.6 °C 1008.7 hPa West 20.9 km/h 37 km/h 58 % 0 mm 522 W/m2
16:43 16.9 °C 8.3 °C 1008.7 hPa West 24.1 km/h 37 km/h 57 % 0 mm 512 W/m2
16:48 16.6 °C 8.3 °C 1008.7 hPa WNW 20.9 km/h 37 km/h 58 % 0 mm 109 W/m2
16:53 16.1 °C 8.1 °C 1008.7 hPa WNW 19.3 km/h 37 km/h 59 % 0 mm 134 W/m2
16:58 16 °C 8.2 °C 1008.7 hPa West 22.5 km/h 37 km/h 60 % 0 mm 424 W/m2
17:03 16.3 °C 8.5 °C 1008.7 hPa WNW 22.5 km/h 41.8 km/h 60 % 0 mm 369 W/m2
17:08 16.4 °C 8.6 °C 1008.7 hPa WNW 20.9 km/h 41.8 km/h 60 % 0 mm 376 W/m2
17:13 16.4 °C 8.6 °C 1008.7 hPa WNW 20.9 km/h 38.6 km/h 60 % 0 mm 309 W/m2
17:18 16.3 °C 8 °C 1008.7 hPa WNW 20.9 km/h 33.8 km/h 58 % 0 mm 262 W/m2
17:23 16.1 °C 7.8 °C 1008.7 hPa WNW 20.9 km/h 38.6 km/h 58 % 0 mm 107 W/m2
17:28 15.9 °C 8.4 °C 1008.7 hPa WNW 20.9 km/h 38.6 km/h 61 % 0 mm 230 W/m2
17:33 15.8 °C 8.6 °C 1008.7 hPa WNW 20.9 km/h 41.8 km/h 62 % 0 mm 169 W/m2
17:38 15.5 °C 8 °C 1009 hPa West 25.7 km/h 43.5 km/h 61 % 0 mm 134 W/m2
17:43 15.2 °C 7.9 °C 1009 hPa West 27.4 km/h 43.5 km/h 62 % 0 mm 91 W/m2
17:48 15 °C 8.2 °C 1009 hPa WNW 20.9 km/h 41.8 km/h 64 % 0 mm 53 W/m2
17:53 14.7 °C 8.4 °C 1009.4 hPa WNW 17.7 km/h 35.4 km/h 66 % 0 mm 40 W/m2
17:58 14.4 °C 8.3 °C 1009.4 hPa WNW 19.3 km/h 37 km/h 67 % 0 mm 42 W/m2
18:03 14.3 °C 8.4 °C 1009.4 hPa WNW 19.3 km/h 37 km/h 68 % 0 mm 51 W/m2
18:08 14.1 °C 8.5 °C 1009.4 hPa WNW 16.1 km/h 29 km/h 69 % 0 mm 60 W/m2
18:13 14.1 °C 8.5 °C 1009.4 hPa WNW 14.5 km/h 25.7 km/h 69 % 0 mm 77 W/m2
18:18 14.1 °C 8.5 °C 1009.4 hPa WNW 14.5 km/h 25.7 km/h 69 % 0 mm 84 W/m2
18:23 14.1 °C 8.5 °C 1009.4 hPa WNW 16.1 km/h 29 km/h 69 % 0 mm 77 W/m2
18:28 14.1 °C 8.3 °C 1009.7 hPa WNW 17.7 km/h 35.4 km/h 68 % 0 mm 60 W/m2
18:33 13.9 °C 8.3 °C 1009.4 hPa WNW 17.7 km/h 35.4 km/h 69 % 0 mm 49 W/m2
18:38 13.9 °C 8.3 °C 1009.7 hPa WNW 14.5 km/h 29 km/h 69 % 0 mm 40 W/m2
18:43 13.8 °C 8.4 °C 1009.7 hPa WNW 14.5 km/h 30.6 km/h 70 % 0 mm 56 W/m2
18:48 13.7 °C 8.6 °C 1009.7 hPa WNW 16.1 km/h 30.6 km/h 71 % 0 mm 58 W/m2
18:53 13.6 °C 8.4 °C 1009.7 hPa WNW 14.5 km/h 25.7 km/h 71 % 0 mm 39 W/m2
18:58 13.4 °C 8.4 °C 1009.7 hPa WNW 14.5 km/h 24.1 km/h 72 % 0 mm 33 W/m2
19:03 13.3 °C 8.6 °C 1009.7 hPa WNW 14.5 km/h 24.1 km/h 73 % 0 mm 28 W/m2
19:09 13.2 °C 8.4 °C 1009.7 hPa WNW 14.5 km/h 24.1 km/h 73 % 0 mm 23 W/m2
19:14 13.1 °C 8.4 °C 1010 hPa WNW 12.9 km/h 24.1 km/h 73 % 0 mm 19 W/m2
19:19 13.1 °C 8.4 °C 1010 hPa WNW 12.9 km/h 22.5 km/h 73 % 0 mm 12 W/m2
19:24 13 °C 8.3 °C 1010 hPa WNW 14.5 km/h 25.7 km/h 73 % 0 mm 9 W/m2
19:29 12.9 °C 8.2 °C 1010 hPa WNW 14.5 km/h 25.7 km/h 73 % 0 mm 0 W/m2
19:34 12.8 °C 8.1 °C 1010 hPa WNW 14.5 km/h 25.7 km/h 73 % 0 mm 0 W/m2
19:39 12.7 °C 8.2 °C 1010.4 hPa WNW 14.5 km/h 30.6 km/h 74 % 0 mm 0 W/m2
19:44 12.6 °C 8.1 °C 1010.4 hPa WNW 14.5 km/h 30.6 km/h 74 % 0 mm 0 W/m2
19:49 12.5 °C 8.2 °C 1010.4 hPa WNW 11.3 km/h 22.5 km/h 75 % 0 mm 0 W/m2
19:54 12.4 °C 8.1 °C 1010.4 hPa WNW 9.7 km/h 20.9 km/h 75 % 0 mm 0 W/m2
19:59 12.3 °C 8.2 °C 1010.4 hPa WNW 9.7 km/h 19.3 km/h 76 % 0 mm 0 W/m2
20:04 12.2 °C 8.3 °C 1010.4 hPa WNW 9.7 km/h 16.1 km/h 77 % 0 mm 0 W/m2
20:09 12.1 °C 8.2 °C 1010.4 hPa WNW 11.3 km/h 24.1 km/h 77 % 0 mm 0 W/m2
20:14 11.9 °C 8 °C 1010.7 hPa WNW 12.9 km/h 25.7 km/h 77 % 0 mm 0 W/m2
20:19 11.8 °C 7.9 °C 1010.7 hPa WNW 12.9 km/h 25.7 km/h 77 % 0 mm 0 W/m2
20:24 11.7 °C 7.8 °C 1010.7 hPa WNW 12.9 km/h 24.1 km/h 77 % 0 mm 0 W/m2
20:29 11.7 °C 7.8 °C 1010.7 hPa WNW 14.5 km/h 30.6 km/h 77 % 0 mm 0 W/m2
20:34 11.6 °C 7.7 °C 1010.7 hPa WNW 16.1 km/h 33.8 km/h 77 % 0 mm 0 W/m2
20:39 11.6 °C 7.7 °C 1010.7 hPa WNW 12.9 km/h 33.8 km/h 77 % 0 mm 0 W/m2
20:44 11.5 °C 7.8 °C 1010.7 hPa WNW 12.9 km/h 25.7 km/h 78 % 0 mm 0 W/m2
20:49 11.4 °C 7.7 °C 1010.7 hPa WNW 11.3 km/h 19.3 km/h 78 % 0 mm 0 W/m2
20:54 11.3 °C 7.8 °C 1010.7 hPa WNW 9.7 km/h 22.5 km/h 79 % 0 mm 0 W/m2
20:59 11.2 °C 7.9 °C 1010.7 hPa WNW 11.3 km/h 22.5 km/h 80 % 0 mm 0 W/m2
21:04 11.2 °C 7.9 °C 1011.1 hPa WNW 11.3 km/h 20.9 km/h 80 % 0 mm 0 W/m2
21:09 11.1 °C 7.8 °C 1011.1 hPa WNW 11.3 km/h 29 km/h 80 % 0 mm 0 W/m2
21:14 11.1 °C 7.9 °C 1010.7 hPa WNW 12.9 km/h 29 km/h 81 % 0 mm 0 W/m2
21:19 11 °C 7.9 °C 1011.1 hPa WNW 14.5 km/h 25.7 km/h 81 % 0 mm 0 W/m2
21:24 10.9 °C 7.8 °C 1011.1 hPa WNW 12.9 km/h 25.7 km/h 81 % 0 mm 0 W/m2
21:29 10.9 °C 7.8 °C 1011.1 hPa West 11.3 km/h 22.5 km/h 81 % 0 mm 0 W/m2
21:34 10.8 °C 7.7 °C 1011.1 hPa WNW 11.3 km/h 20.9 km/h 81 % 0 mm 0 W/m2
21:39 10.8 °C 7.7 °C 1011.1 hPa WNW 9.7 km/h 19.3 km/h 81 % 0 mm 0 W/m2
21:44 10.7 °C 7.6 °C 1011.1 hPa WNW 8 km/h 17.7 km/h 81 % 0 mm 0 W/m2
21:50 10.6 °C 7.7 °C 1011.1 hPa WNW 9.7 km/h 19.3 km/h 82 % 0 mm 0 W/m2
21:55 10.6 °C 7.7 °C 1011.1 hPa WNW 11.3 km/h 20.9 km/h 82 % 0 mm 0 W/m2
22:00 10.5 °C 7.6 °C 1011.1 hPa WNW 12.9 km/h 20.9 km/h 82 % 0 mm 0 W/m2
22:05 10.4 °C 7.4 °C 1011.1 hPa WNW 12.9 km/h 20.9 km/h 82 % 0 mm 0 W/m2
22:10 10.4 °C 7.4 °C 1011.1 hPa WNW 11.3 km/h 20.9 km/h 82 % 0 mm 0 W/m2
22:15 10.3 °C 7.3 °C 1011.1 hPa WNW 11.3 km/h 19.3 km/h 82 % 0 mm 0 W/m2
22:20 10.3 °C 7.6 °C 1011.1 hPa WNW 11.3 km/h 19.3 km/h 83 % 0 mm 0 W/m2
22:25 10.3 °C 7.6 °C 1011.1 hPa WNW 11.3 km/h 19.3 km/h 83 % 0 mm 0 W/m2
22:30 10.3 °C 7.6 °C 1011.1 hPa WNW 11.3 km/h 17.7 km/h 83 % 0 mm 0 W/m2
22:35 10.2 °C 7.4 °C 1011.1 hPa WNW 9.7 km/h 17.7 km/h 83 % 0 mm 0 W/m2
22:40 10.1 °C 7.3 °C 1011.1 hPa WNW 9.7 km/h 19.3 km/h 83 % 0 mm 0 W/m2
22:45 10.1 °C 7.5 °C 1011.1 hPa WNW 9.7 km/h 19.3 km/h 84 % 0 mm 0 W/m2
22:50 10.1 °C 7.5 °C 1011.1 hPa WNW 9.7 km/h 19.3 km/h 84 % 0 mm 0 W/m2
22:55 10.1 °C 7.5 °C 1011.1 hPa WNW 11.3 km/h 20.9 km/h 84 % 0 mm 0 W/m2
23:00 10 °C 7.4 °C 1011.4 hPa WNW 11.3 km/h 20.9 km/h 84 % 0 mm 0 W/m2
23:05 9.9 °C 7.3 °C 1011.4 hPa WNW 11.3 km/h 19.3 km/h 84 % 0 mm 0 W/m2
23:10 9.9 °C 7.3 °C 1011.1 hPa WNW 9.7 km/h 17.7 km/h 84 % 0 mm 0 W/m2
23:15 9.9 °C 7.3 °C 1011.1 hPa WNW 9.7 km/h 16.1 km/h 84 % 0 mm 0 W/m2
23:20 9.8 °C 7.4 °C 1011.4 hPa WNW 9.7 km/h 16.1 km/h 85 % 0 mm 0 W/m2
23:25 9.8 °C 7.4 °C 1011.4 hPa WNW 9.7 km/h 17.7 km/h 85 % 0 mm 0 W/m2
23:30 9.7 °C 7.3 °C 1011.4 hPa WNW 9.7 km/h 17.7 km/h 85 % 0 mm 0 W/m2
23:35 9.7 °C 7.3 °C 1011.4 hPa WNW 8 km/h 16.1 km/h 85 % 0 mm 0 W/m2
23:40 9.7 °C 7.3 °C 1011.4 hPa West 8 km/h 16.1 km/h 85 % 0 mm 0 W/m2
23:45 9.6 °C 7.2 °C 1011.4 hPa West 9.7 km/h 16.1 km/h 85 % 0 mm 0 W/m2
23:50 9.6 °C 7.2 °C 1011.1 hPa West 8 km/h 14.5 km/h 85 % 0 mm 0 W/m2
23:55 9.6 °C 7.4 °C 1011.4 hPa WNW 8 km/h 14.5 km/h 86 % 0 mm 0 W/m2
Delerius-Weather
Compliments of Weather Underground - 2.25 mb

Data updates at regular intervals.